WE3C Weather Reports


time (UTC)temp
C
wind
direction
speed
KPH
gust
KPH
rain 1hr
cm
rain 24hr
cm
rain mn
cm
humidity
%
barometer
mb
20260504214534 21 199 0.0 0.0 0.00 0.00 0.00 36 1014.3
20260504213029 21 218 0.0 0.0 0.00 0.00 0.00 36 1014.2
20260504211524 21 204 0.0 0.0 0.00 0.00 0.00 36 1014.5
20260504210019 21 209 0.0 0.0 0.00 0.00 0.00 37 1014.4
20260504204539 21 190 0.0 0.0 0.00 0.00 0.00 36 1014.7
20260504203017 21 219 0.0 0.0 0.00 0.00 0.00 35 1014.7
20260504201514 21 246 0.0 0.0 0.00 0.00 0.00 36 1014.8
20260504200014 21 212 0.0 0.0 0.00 0.00 0.00 36 1014.9
20260504194511 20 217 0.0 0.0 0.00 0.00 0.00 38 1015.1
20260504193010 21 242 0.0 0.0 0.00 0.00 0.00 36 1015.4
20260504191502 21 217 0.0 0.0 0.00 0.00 0.00 36 1015.5
20260504184605 21 191 0.0 0.0 0.00 0.00 0.00 37 1015.7
20260504183100 21 219 0.0 0.0 0.00 0.00 0.00 37 1016.1
20260504181554 20 198 0.0 0.0 0.00 0.00 0.00 37 1016.2
20260504180052 20 208 0.0 0.0 0.00 0.00 0.00 38 1016.5
20260504174550 20 241 0.0 0.0 0.00 0.00 0.00 38 1016.6
20260504173043 19 184 0.0 0.0 0.00 0.00 0.00 38 1016.8
20260504171546 19 205 0.0 0.0 0.00 0.00 0.00 38 1017.2
20260504081521 8 222 0.0 0.0 0.00 0.00 0.00 56 1019.7
20260504044603 8 221 0.0 0.0 0.00 0.00 0.00 54 1019.7
20260504043056 8 360 0.0 0.0 0.00 0.00 0.00 54 1019.7
20260504041554 8 228 0.0 0.0 0.00 0.00 0.00 53 1019.6
20260504040049 8 219 0.0 0.0 0.00 0.00 0.00 52 1019.5
20260504034605 8 211 0.0 0.0 0.00 0.00 0.00 54 1019.1
20260504033046 8 360 0.0 0.0 0.00 0.00 0.00 57 1019.1
20260504031546 8 217 0.0 0.0 0.00 0.00 0.00 55 1019.2
20260504030045 8 360 0.0 0.0 0.00 0.00 0.00 57 1019.0
20260504024645 8 360 0.0 0.0 0.00 0.00 0.00 56 1019.2
20260504023009 8 225 0.0 0.0 0.00 0.00 0.00 53 1019.2
20260504021507 8 360 0.0 0.0 0.00 0.00 0.00 55 1019.2
20260504020007 8 239 0.0 0.0 0.00 0.00 0.00 57 1019.2
20260504014504 8 240 0.0 0.0 0.00 0.00 0.00 57 1019.0
20260504013003 8 250 0.0 0.0 0.00 0.00 0.00 56 1019.1
20260504011503 9 249 0.0 0.0 0.00 0.00 0.00 55 1019.0
20260504004558 9 252 0.0 0.0 0.00 0.00 0.00 55 1018.7
20260504003100 10 257 0.0 0.0 0.00 0.00 0.00 54 1018.5
20260504001609 11 257 0.0 0.0 0.00 0.00 0.00 51 1018.1
20260504000057 11 248 0.0 0.0 0.00 0.00 0.00 46 1018.2
20260503234556 12 360 0.0 0.0 0.00 0.00 0.00 41 1017.9
20260503233055 12 360 0.0 0.0 0.00 0.00 0.00 41 1017.9
20260503231555 12 259 0.0 0.0 0.00 0.00 0.00 39 1017.9
20260503230059 13 248 0.0 0.0 0.00 0.00 0.00 39 1017.9
20260503224555 13 248 0.0 0.0 0.00 0.00 0.00 37 1017.8
20260503223052 13 254 0.0 0.0 0.00 0.00 0.00 39 1017.7
20260503221552 13 305 0.0 0.0 0.00 0.00 0.00 41 1017.7
20260503220051 13 310 0.0 0.0 0.00 0.00 0.00 37 1017.8